Weather Roundup
Issued by NWS Springfield, MO

Home | Current Version | Previous Version | Text Only | Print | Product List | Glossary On
Versions: 1 2 3 4 5 6 7 8 9 10 11 12 13 14 15 16 17 18 19 20 21 22 23 24 25 26 27 28 29 30 31 32 33 34 35 36 37 38 39 40 41 42 43 44 45 46 47 48 49 50
000
NZUS99 KSGF 271807
HRRSGF

HOURLY WEATHER
NATIONAL WEATHER SERVICE SPRINGFIELD MO
100 PM CDT FRI MAR 27 2015

......SGF CWA......

CITY           SKY/WX    TMP DP  RH WIND       PRES   REMARKS
SPRINGFIELD    PTSUNNY   42  25  50 N15G25    30.18F
6HR MIN TEMP:  36; 6HR MAX TEMP:  44; 6HR PCP:  0.01;

JOPLIN         PTSUNNY   44  27  51 N8        30.23F
6HR MIN TEMP:  38; 6HR MAX TEMP:  45;

WEST PLAINS    CLOUDY    42  28  57 MISG      30.16S
6HR MIN TEMP:  35; 6HR MAX TEMP:  42; 6HR PCP: TRACE;

ROLLA          CLOUDY    37  21  52 NW15      30.17S WCI  28
6HR MIN TEMP:  30; 6HR MAX TEMP:  39; 6HR PCP:  0.01;

OSAGE BEACH    PTSUNNY   39  21  48 N8G20     30.20F WCI  34
BRANSON        CLOUDY    41  32  70 N13G21    30.18F

......SURROUNDING SGF CWA......

CITY           SKY/WX    TMP DP  RH WIND       PRES   REMARKS
CHANUTE        MOSUNNY   46  27  47 N14G20    30.25F
PARSONS        MOSUNNY   48  27  44 N9G21     30.26F
COFFEYVILLE    SUNNY     47  27  45 N10G22    30.25F
EMPORIA        MOSUNNY   44  22  41 N13       30.25F
GROVE OK       MOSUNNY   48  30  49 N17       30.24F
ROGERS AR      PTSUNNY   45  28  51 N9G20     30.20S
SILOAM SPRINGS PTSUNNY   46  28  49 N16       30.21S
HARRISON AR    PTSUNNY   44  32  62 N10       30.16F
NEAR YELLVILLE CLOUDY    45  30  57 N12       30.17F

......KANSAS AND MISSOURI......

CITY           SKY/WX    TMP DP  RH WIND       PRES   REMARKS
KANSAS CTY INT MOSUNNY   41  21  44 N10G18    30.25F
DOWNTOWN KC    SUNNY     42  20  41 NW10      30.25F
COLUMBIA       PTSUNNY   38  21  50 N8        30.20F WCI  32
SEDALIA        MOSUNNY   41  22  46 N12       30.24R
ST JOSEPH      SUNNY     39  19  44 NW7       30.28F WCI  34
ST LOUIS       PTSUNNY   38  23  55 N12       30.19S WCI  30
SPIRIT OF STL  CLOUDY    38  20  48 N13       30.19F WCI  30
KIRKSVILLE     SUNNY     39  14  36 N12G21    30.22S WCI  32
WICHITA        PTSUNNY   45  28  51 N6        30.25F
TOPEKA         SUNNY     41  23  48 N8G17     30.28F
OLATHE         MOSUNNY   39  20  46 MISG      30.24F

......TENNESSEE......

CITY           SKY/WX    TMP DP  RH WIND       PRES   REMARKS
MEMPHIS        LGT RAIN  46  37  71 N12       30.11R
NASHVILLE      CLOUDY    49  29  46 NW9       30.01F

......ARKANSAS.......

CITY           SKY/WX    TMP DP  RH WIND       PRES   REMARKS
FAYETTEVILLE   PTSUNNY   47  33  58 N12G21    30.18F
FT SMITH       MOSUNNY   53  33  46 NW9       30.19F
LITTLE ROCK    LGT RAIN  48  36  63 NW16      30.17R

......OKLAHOMA.......

CITY           SKY/WX    TMP DP  RH WIND       PRES   REMARKS
TULSA          PTSUNNY   51  32  48 N12G21    30.23F
PONCA CITY     MOSUNNY   50  28  42 NE8       30.26F
MCALESTER      CLOUDY    51  37  58 N16G22    30.24R
OKLAHOMA CITY  CLOUDY    50  36  58 N10G20    30.25S

......IOWA............

CITY           SKY/WX    TMP DP  RH WIND       PRES   REMARKS
DES MOINES     PTSUNNY   39   9  29 VRB5      30.25F
QUAD CITIES    SUNNY     34   9  35 NW15G21   30.22F WCI  24

......ILLINOIS........

CITY           SKY/WX    TMP DP  RH WIND       PRES   REMARKS
QUINCY         CLOUDY    36  20  52 N10       30.20F WCI  28
CHICAGO        MOSUNNY   29  10  45 NE13      30.16S WCI  19



USA.gov is the U.S. government's official web portal to all federal, state and local government web resources and services.